SWM388 EHRD-ESSB

Flight info

Callsign SWM388
Flight time N/A
Altitude 37000
Route ANDIK2A ANDIK N873 LOBBI DCT OXJAG DCT LABAN N873 PELIT Y42 TINKA TINKA7Y
Aircraft A320/M-SDE3FGHIRWY/LB1

Departure

Time 2026-05-05 15:04
Airport Rotterdam The Hague Airport (EHRD)

Arrival

Time N/A
Airport Stockholm-Bromma Airport (ESSB)
Time Latitude Longitude Altitude Speed Heading
2026-05-05 14:46 51.95137 4.43301 -7 ft 0 kts 147°
2026-05-05 14:58 51.95134 4.43316 -6 ft 0 kts 101°
2026-05-05 14:58 51.95145 4.43318 -6 ft 3 kts 351°
2026-05-05 14:58 51.95162 4.43282 -7 ft 5 kts 306°
2026-05-05 14:58 51.95169 4.43219 -7 ft 7 kts 245°
2026-05-05 14:59 51.95146 4.43145 -6 ft 8 kts 245°
2026-05-05 14:59 51.95123 4.43063 -5 ft 8 kts 245°
2026-05-05 14:59 51.95116 4.43038 -4 ft 0 kts 248°
2026-05-05 15:01 51.95114 4.43028 -4 ft 4 kts 252°
2026-05-05 15:01 51.95122 4.42949 -4 ft 10 kts 304°
2026-05-05 15:01 51.95189 4.42870 -3 ft 10 kts 328°
2026-05-05 15:02 51.95233 4.42891 -3 ft 2 kts 56°
2026-05-05 15:03 51.95267 4.42974 -4 ft 36 kts 57°
2026-05-05 15:03 51.95529 4.43633 -9 ft 100 kts 57°
2026-05-05 15:04 51.96001 4.44793 19 ft 143 kts 56°
2026-05-05 15:04 51.96517 4.46130 697 ft 137 kts 57°
2026-05-05 15:04 51.97005 4.47461 1383 ft 137 kts 57°
2026-05-05 15:04 51.97496 4.48802 1908 ft 144 kts 57°
2026-05-05 15:05 51.98677 4.52005 2468 ft 188 kts 57°
2026-05-05 15:05 51.99322 4.53998 2813 ft 209 kts 64°
2026-05-05 15:05 51.99996 4.56269 2981 ft 238 kts 57°
2026-05-05 15:06 52.01207 4.58135 3009 ft 245 kts 28°
2026-05-05 15:06 52.02770 4.59301 3079 ft 252 kts 25°
2026-05-05 15:06 52.04391 4.60477 3968 ft 255 kts 27°
2026-05-05 15:06 52.05806 4.62196 4890 ft 259 kts 45°
2026-05-05 15:07 52.07084 4.64320 5762 ft 265 kts 46°
2026-05-05 15:07 52.08381 4.66517 6553 ft 273 kts 46°
2026-05-05 15:07 52.09685 4.68735 7341 ft 278 kts 46°
2026-05-05 15:07 52.11031 4.71020 8183 ft 281 kts 46°
2026-05-05 15:08 52.12400 4.73338 9007 ft 285 kts 46°
2026-05-05 15:08 52.13784 4.75681 9838 ft 289 kts 46°
2026-05-05 15:08 52.15209 4.78094 10315 ft 306 kts 46°
2026-05-05 15:08 52.16738 4.80685 10528 ft 329 kts 46°
2026-05-05 15:09 52.18348 4.83418 11004 ft 339 kts 46°
2026-05-05 15:09 52.20001 4.86218 11677 ft 344 kts 46°
2026-05-05 15:09 52.21666 4.89040 12366 ft 348 kts 46°
2026-05-05 15:09 52.23353 4.91906 13053 ft 352 kts 46°
2026-05-05 15:10 52.25055 4.94804 13727 ft 356 kts 46°
2026-05-05 15:10 52.26775 4.97737 14309 ft 360 kts 46°
2026-05-05 15:10 52.28514 5.00711 14903 ft 364 kts 46°
2026-05-05 15:10 52.30270 5.03721 15489 ft 367 kts 46°
2026-05-05 15:11 52.32106 5.06633 16059 ft 371 kts 39°
2026-05-05 15:11 52.34263 5.08994 16627 ft 375 kts 27°
2026-05-05 15:11 52.36681 5.10633 17183 ft 378 kts 16°
2026-05-05 15:11 52.39238 5.11749 17742 ft 382 kts 14°
2026-05-05 15:12 52.41823 5.12866 18295 ft 386 kts 14°
2026-05-05 15:12 52.44437 5.14002 18801 ft 390 kts 14°
2026-05-05 15:12 52.47067 5.15154 19292 ft 394 kts 14°
2026-05-05 15:12 52.49729 5.16333 19812 ft 398 kts 14°
2026-05-05 15:13 52.52419 5.17523 20312 ft 402 kts 14°
2026-05-05 15:13 52.55131 5.18718 20805 ft 405 kts 14°
2026-05-05 15:13 52.57863 5.19919 21275 ft 409 kts 14°
2026-05-05 15:13 52.60627 5.21136 21750 ft 412 kts 14°
2026-05-05 15:14 52.63402 5.22360 22216 ft 415 kts 14°
2026-05-05 15:14 52.66161 5.23582 22677 ft 418 kts 14°
2026-05-05 15:14 52.69017 5.24869 23149 ft 422 kts 16°
2026-05-05 15:14 52.71714 5.26657 23572 ft 426 kts 26°
2026-05-05 15:15 52.74240 5.29254 23956 ft 430 kts 37°
2026-05-05 15:15 52.76470 5.32566 24338 ft 433 kts 47°
2026-05-05 15:15 52.78377 5.36423 24712 ft 435 kts 52°
2026-05-05 15:15 52.80243 5.40388 25090 ft 438 kts 52°
2026-05-05 15:16 52.82125 5.44386 25462 ft 441 kts 52°
2026-05-05 15:16 52.84017 5.48407 25819 ft 444 kts 52°
2026-05-05 15:16 52.85920 5.52457 26179 ft 447 kts 52°
2026-05-05 15:16 52.87831 5.56532 26529 ft 450 kts 52°
2026-05-05 15:17 52.89757 5.60645 26878 ft 453 kts 52°
2026-05-05 15:17 52.91698 5.64798 27239 ft 457 kts 52°